Wind_Speed
26 28 30 32 34 34 35 37 37 37 39 40 39 41 42 44 45 45 46 48 49 52 56 69 83 106 105 110 113 118 125 119 114 113 108 108 104 99 97 93 90 84 82 81 74
32 31 30 28 28 28 30 33 37 40 41 42 42 45 47 48 49 49 49 49 49 53 55 66 70 77 92 101 109 116 121 120 120 115 113 113 111 108 106 98 94 90 86 86 83
33 36 37 35 33 33 31 28 29 29 30 33 38 43 49 51 51 50 50 49 48 51 52 59 59 57 65 84 105 106 110 121 122 124 127 123 116 115 103 99 96 98 95 89 89
39 36 38 38 37 35 35 35 35 34 34 35 35 36 38 43 49 49 49 47 46 49 49 53 51 43 50 65 93 106 107 114 124 132 134 123 118 115 110 107 105 105 99 96 92
49 43 37 38 38 40 39 39 37 36 37 38 37 38 37 38 42 45 48 45 45 47 47 47 49 35 39 54 75 99 107 112 120 130 122 121 119 116 110 111 108 105 105 103 98
51 50 45 37 39 39 41 40 40 39 40 41 37 35 37 36 36 41 44 44 44 45 47 44 50 31 29 42 62 88 101 109 114 120 121 121 123 118 115 113 111 106 106 105 104
40 44 47 44 36 40 42 43 43 42 43 43 36 33 34 33 32 30 37 40 43 44 46 43 45 34 20 30 51 72 91 103 109 112 115 121 119 116 117 118 111 107 105 104 105
32 37 41 46 42 39 41 44 45 47 46 41 36 34 31 30 30 31 31 30 35 40 43 42 39 38 18 19 40 57 72 84 99 106 108 115 117 118 117 114 111 106 108 109 107
35 29 34 39 38 39 40 41 43 47 46 43 37 32 32 29 32 28 34 29 30 35 38 38 36 34 23 11 27 43 53 64 82 98 101 105 111 117 116 114 113 111 105 102 103
38 30 30 34 31 36 37 38 41 44 45 43 38 35 32 29 30 30 25 35 23 29 32 34 32 29 26 11 20 36 43 50 64 84 93 97 103 111 113 116 117 116 114 111 100
42 31 29 31 34 35 36 36 37 40 42 40 41 38 33 30 29 30 26 32 24 24 28 27 29 26 22 17 7 26 35 39 47 65 79 91 94 98 108 114 111 115 120 118 121
48 33 29 31 30 34 36 35 35 37 38 39 40 38 34 30 28 28 30 30 21 21 22 26 27 25 23 18 12 7 23 38 42 47 64 84 90 93 94 101 106 111 113 111 117
51 36 33 31 32 31 34 36 38 35 32 37 36 38 39 34 31 30 29 28 29 30 24 30 27 26 23 22 18 12 9 10 25 41 48 62 80 90 93 93 98 104 112 114 114
53 45 31 32 32 33 32 34 34 35 34 39 38 36 40 39 34 33 31 31 26 22 27 31 26 28 26 23 21 19 14 13 11 13 23 43 57 68 83 92 94 94 98 104 110
60 52 36 31 35 34 36 35 32 32 34 38 39 35 32 35 35 35 34 33 32 31 33 35 31 29 27 28 26 23 20 20 17 19 16 20 23 37 51 65 79 84 89 94 98
61 57 43 32 32 34 37 40 42 38 39 40 41 39 37 37 38 38 37 37 35 35 38 42 35 35 29 29 30 27 25 26 23 22 20 28 25 29 33 31 38 47 58 68 82
65 57 51 37 35 37 35 36 37 39 41 40 42 42 44 45 43 40 40 40 40 38 37 40 47 41 38 32 32 30 29 29 29 27 27 34 32 37 40 37 39 40 46 50 55
65 61 54 46 36 37 36 36 38 40 43 42 37 37 36 38 41 42 45 47 46 42 39 37 45 50 43 41 40 35 31 32 32 31 33 36 39 42 44 42 42 48 53 61 64
64 66 59 49 43 35 38 39 42 42 41 43 47 48 47 47 49 49 48 45 45 44 42 40 42 48 49 42 45 41 37 37 36 37 35 40 43 47 49 45 48 55 61 68 72
68 61 62 49 49 39 35 37 40 41 39 42 45 49 53 53 56 55 51 52 49 46 45 43 40 46 49 47 47 44 41 39 40 38 40 42 43 52 50 52 57 63 67 71 75
79 55 58 54 47 44 35 34 40 40 41 42 45 46 43 44 43 42 42 41 43 44 44 42 38 46 48 48 50 47 45 43 41 41 42 45 49 53 53 59 62 65 69 64 54
87 58 58 58 46 46 41 38 40 43 44 44 42 40 41 37 33 33 33 34 38 41 43 40 37 46 50 52 52 48 47 47 45 45 46 47 51 54 57 58 61 54 34 24 14
88 61 58 54 48 47 43 42 39 41 42 42 39 37 35 35 33 34 36 34 38 41 40 41 39 42 50 53 53 51 50 49 45 42 46 47 50 55 53 54 23 8 5 4 12
71 58 57 52 50 48 45 43 40 43 39 39 38 37 36 34 34 38 38 36 39 40 40 37 38 39 52 55 53 51 51 48 43 43 47 49 49 46 37 10 7 5 12 14 17
65 56 54 50 47 48 47 45 44 43 41 35 34 35 34 35 34 36 39 39 40 40 38 34 38 38 44 55 54 49 44 39 38 42 43 46 40 28 13 8 3 6 14 19 23
59 52 56 45 46 45 46 46 42 40 39 36 36 34 32 33 34 36 39 41 40 40 39 37 38 35 40 46 53 47 42 36 41 43 41 35 26 18 15 9 6 7 11 18 25
55 52 50 45 46 44 45 47 44 40 36 35 36 34 32 33 34 34 32 35 38 40 39 37 36 33 36 40 45 49 41 40 43 38 31 25 20 16 20 13 9 11 15 20 26
Wind_Direction
279 274 270 270 269 267 268 265 263 264 262 263 265 268 268 266 265 266 269 269 271 275 276 284 269 254 249 249 240 234 231 229 229 232 231 234 235 237 237 237 241 239 246 244 239
282 279 275 276 270 268 274 269 268 267 268 270 270 268 270 271 270 270 272 276 279 283 290 294 279 262 251 246 244 238 231 228 227 230 231 233 234 234 234 235 238 241 243 244 236
274 276 278 275 272 270 273 268 275 270 272 276 276 276 275 272 273 274 275 280 284 288 297 306 292 269 249 235 230 232 229 225 225 228 230 231 233 234 233 239 240 242 242 243 243
269 267 269 268 270 268 270 271 277 273 276 277 280 287 291 280 273 276 281 284 289 293 304 319 308 278 249 234 226 224 222 223 223 225 227 230 233 235 233 236 238 241 241 242 243
276 269 265 269 268 267 267 269 271 273 276 278 280 284 291 295 279 278 281 287 293 300 309 328 326 290 250 234 224 221 220 218 221 224 226 230 232 233 233 237 238 241 243 243 244
279 272 267 265 269 265 263 265 268 271 274 277 281 284 290 295 286 283 287 288 297 306 311 329 338 311 259 235 223 219 220 220 220 223 224 226 229 231 232 235 238 241 243 245 244
283 274 267 260 263 267 261 262 264 270 272 277 275 279 284 295 293 296 298 296 299 308 314 325 343 336 282 238 222 219 221 222 222 223 223 225 228 231 232 233 236 239 243 245 248
301 277 267 259 256 263 264 262 263 265 269 275 273 282 281 291 296 296 293 306 310 312 314 321 340 350 325 243 221 219 220 224 225 225 225 225 228 230 231 233 235 239 240 243 246
311 283 268 262 260 261 262 264 264 262 264 270 270 275 277 287 292 281 291 291 311 318 315 318 331 349 346 279 224 219 223 226 226 226 227 227 228 231 231 232 233 235 235 241 246
317 295 270 265 264 263 262 263 265 263 263 268 266 270 270 280 283 287 295 291 300 317 315 316 323 335 352 316 230 220 222 228 230 227 228 230 231 233 234 232 235 237 238 235 237
326 294 281 272 264 264 263 267 264 268 266 269 266 267 268 271 278 282 275 279 274 303 310 311 315 321 331 346 286 230 229 232 236 232 230 231 232 235 236 237 237 238 239 238 238
334 303 279 281 276 269 262 263 266 265 268 270 267 267 264 269 272 281 277 288 270 270 291 298 306 310 310 317 325 319 240 237 236 237 234 234 235 235 238 238 239 240 240 240 241
339 319 277 279 272 268 265 265 267 263 266 273 271 267 264 264 269 276 281 286 270 257 275 276 291 296 296 297 301 299 297 271 246 240 235 234 235 238 240 240 242 243 243 245 243
338 332 292 278 272 264 270 266 268 269 265 272 272 264 264 263 265 270 279 282 285 256 257 263 266 282 282 282 284 284 288 276 272 259 246 243 240 240 243 245 245 246 248 250 251
336 334 311 279 279 267 266 264 263 265 262 269 271 265 261 259 263 271 273 273 271 258 246 249 252 262 273 277 272 272 267 269 270 266 264 253 242 246 248 250 250 252 253 252 251
335 334 329 287 280 273 274 267 271 273 269 267 265 261 260 265 271 267 268 269 268 268 260 251 254 253 255 269 267 264 262 267 262 261 262 262 264 263 266 256 250 248 250 252 254
330 330 329 314 281 275 273 272 268 269 269 264 260 258 264 268 267 265 267 268 269 270 266 255 249 246 248 246 258 261 259 258 262 260 259 263 265 265 264 264 270 269 272 269 263
320 319 327 326 306 271 269 268 267 265 267 268 266 265 265 264 265 267 268 268 266 265 265 263 248 244 245 247 244 247 256 256 259 258 257 263 264 266 267 272 273 276 277 274 271
321 313 319 321 318 291 270 269 264 272 275 276 277 277 275 274 274 274 268 264 264 262 262 265 257 244 239 239 248 249 252 255 256 259 263 266 272 274 275 281 283 279 278 278 276
328 310 306 315 313 309 274 275 272 273 274 276 276 276 275 273 272 270 265 261 262 261 259 263 258 245 240 234 241 247 249 250 254 259 264 268 273 276 286 286 282 281 280 279 278
332 308 306 309 308 306 294 280 278 276 277 280 283 284 283 277 268 266 260 257 257 256 258 261 257 243 238 238 239 241 247 246 251 255 262 269 276 281 284 285 288 292 293 295 293
325 311 302 305 302 302 297 276 278 278 280 287 286 281 283 276 264 255 254 255 257 255 260 261 256 238 236 240 239 243 244 249 250 258 266 270 276 280 287 291 295 294 297 296 300
322 309 299 301 303 299 296 295 282 282 283 285 290 285 279 272 261 257 256 255 257 259 262 261 253 242 235 238 242 242 244 250 258 263 268 273 278 285 291 295 291 250 260 345 10
316 302 299 295 295 296 291 290 289 285 285 284 287 284 278 272 266 261 260 259 258 260 264 261 253 246 234 237 240 245 248 253 258 262 267 275 283 289 291 244 205 356 18 9 358
310 295 295 290 289 293 287 287 288 283 286 286 283 281 276 273 268 263 263 262 260 264 264 261 256 247 240 237 238 244 248 251 257 262 270 280 286 283 216 215 218 348 352 4 354
302 287 290 285 281 287 285 284 284 286 283 284 283 281 277 272 267 265 262 262 261 264 266 264 257 250 242 236 230 238 245 249 252 259 274 282 273 203 220 232 289 299 345 351 350
292 284 285 277 279 282 281 280 284 286 284 286 282 278 277 267 267 268 265 263 263 262 259 259 255 250 240 234 221 229 236 240 252 267 274 264 201 215 240 240 264 318 337 345 340
Height
10771 10769 10767 10766 10764 10763 10761 10760 10759 10758 10757 10755 10754 10753 10752 10752 10750 10749 10746 10745 10743 10738 10733 10722 10707 10708 10714 10721 10733 10745 10750 10780 10800 10811 10825 10825 10833 10841 10846 10859 10870 10876 10880 10884 10903
10761 10759 10757 10756 10755 10754 10753 10751 10750 10749 10747 10746 10744 10743 10741 10740 10738 10735 10733 10730 10727 10720 10711 10696 10680 10676 10677 10681 10693 10705 10731 10761 10779 10793 10801 10801 10806 10818 10825 10848 10856 10863 10865 10868 10884
10749 10748 10747 10745 10745 10744 10744 10743 10742 10740 10738 10737 10735 10733 10730 10728 10726 10724 10720 10717 10712 10705 10695 10675 10655 10644 10640 10645 10659 10677 10704 10732 10753 10764 10759 10767 10789 10793 10832 10842 10844 10843 10850 10859 10864
10739 10735 10734 10733 10734 10734 10733 10733 10732 10731 10729 10727 10725 10722 10719 10716 10714 10712 10707 10704 10699 10691 10680 10660 10638 10624 10621 10627 10637 10654 10680 10698 10720 10724 10729 10767 10777 10788 10811 10817 10820 10823 10839 10841 10849
10729 10727 10723 10722 10722 10722 10722 10722 10721 10721 10719 10718 10715 10713 10710 10706 10702 10700 10697 10693 10688 10680 10667 10650 10629 10614 10609 10613 10622 10642 10660 10676 10691 10699 10740 10758 10763 10771 10792 10796 10803 10811 10820 10826 10831
10714 10714 10714 10711 10711 10710 10710 10710 10709 10710 10709 10707 10706 10704 10701 10697 10692 10689 10687 10683 10678 10670 10658 10645 10626 10609 10603 10605 10614 10629 10647 10663 10678 10693 10719 10729 10737 10753 10772 10780 10787 10795 10802 10808 10816
10698 10699 10700 10700 10699 10698 10697 10698 10698 10698 10698 10696 10696 10693 10692 10688 10684 10681 10678 10674 10669 10662 10652 10641 10627 10610 10602 10602 10610 10625 10642 10658 10672 10683 10703 10714 10727 10742 10748 10755 10773 10784 10789 10793 10797
10686 10684 10686 10685 10687 10686 10686 10685 10686 10686 10686 10686 10686 10684 10683 10680 10676 10674 10671 10668 10662 10656 10648 10639 10629 10616 10606 10604 10611 10624 10637 10651 10663 10674 10686 10703 10715 10721 10726 10746 10761 10772 10771 10777 10784
10675 10672 10671 10670 10675 10675 10676 10675 10675 10674 10674 10676 10676 10675 10673 10672 10668 10666 10663 10661 10657 10652 10645 10638 10631 10623 10615 10612 10617 10626 10636 10645 10650 10661 10675 10690 10696 10696 10719 10733 10742 10749 10753 10763 10770
10665 10662 10660 10660 10663 10662 10664 10664 10663 10663 10663 10665 10665 10665 10664 10663 10660 10657 10655 10653 10651 10648 10642 10637 10632 10628 10623 10619 10620 10624 10630 10637 10641 10652 10668 10679 10683 10686 10700 10716 10724 10731 10736 10747 10750
10658 10653 10651 10650 10651 10651 10653 10653 10653 10652 10653 10655 10655 10654 10654 10653 10651 10648 10646 10644 10644 10644 10641 10636 10632 10630 10628 10625 10624 10626 10630 10636 10636 10647 10659 10665 10672 10676 10686 10698 10703 10708 10713 10725 10733
10652 10646 10642 10641 10640 10641 10641 10642 10642 10642 10643 10643 10644 10644 10644 10643 10642 10640 10639 10637 10636 10636 10636 10634 10631 10630 10628 10628 10626 10626 10627 10630 10634 10641 10649 10654 10664 10667 10673 10679 10684 10691 10696 10702 10712
10646 10638 10635 10632 10630 10630 10631 10632 10632 10633 10633 10631 10633 10634 10633 10633 10632 10631 10630 10630 10628 10629 10630 10629 10630 10628 10626 10626 10626 10627 10627 10627 10629 10634 10639 10641 10648 10653 10659 10666 10668 10673 10676 10682 10687
10638 10631 10625 10624 10621 10620 10621 10621 10622 10622 10624 10621 10622 10623 10623 10623 10623 10622 10622 10622 10621 10621 10622 10622 10625 10624 10624 10624 10625 10625 10625 10626 10627 10629 10631 10638 10641 10643 10645 10650 10656 10660 10663 10675 10688
10632 10625 10617 10613 10613 10611 10611 10611 10611 10612 10613 10612 10610 10612 10612 10613 10613 10613 10614 10614 10614 10614 10614 10614 10617 10618 10619 10620 10620 10622 10623 10622 10624 10625 10628 10628 10631 10630 10636 10640 10643 10658 10660 10659 10656
10624 10617 10610 10605 10602 10601 10601 10601 10600 10600 10600 10602 10601 10600 10601 10602 10602 10603 10604 10604 10604 10605 10606 10605 10607 10609 10611 10614 10614 10616 10617 10617 10620 10622 10625 10620 10625 10626 10624 10630 10632 10635 10640 10639 10641
10616 10609 10601 10596 10592 10590 10590 10590 10591 10589 10588 10589 10589 10590 10589 10590 10591 10590 10591 10592 10592 10593 10594 10596 10598 10600 10602 10605 10607 10609 10611 10613 10614 10616 10619 10616 10620 10618 10618 10623 10624 10627 10626 10625 10623
10605 10598 10593 10586 10581 10579 10578 10580 10579 10577 10577 10576 10576 10576 10577 10577 10578 10578 10578 10578 10578 10581 10583 10585 10586 10588 10592 10595 10597 10601 10604 10605 10607 10609 10610 10609 10610 10609 10609 10615 10619 10616 10612 10605 10604
10597 10587 10584 10577 10571 10567 10566 10566 10566 10566 10564 10563 10563 10562 10563 10563 10562 10564 10563 10564 10565 10567 10571 10572 10573 10576 10580 10585 10587 10590 10593 10596 10598 10599 10602 10598 10598 10597 10597 10606 10605 10601 10599 10591 10587
10586 10576 10572 10567 10561 10557 10554 10552 10553 10553 10552 10550 10550 10549 10547 10548 10545 10548 10549 10549 10551 10553 10557 10559 10561 10562 10567 10575 10577 10580 10583 10586 10588 10591 10592 10590 10591 10582 10589 10590 10588 10584 10581 10575 10567
10572 10565 10558 10556 10552 10546 10543 10542 10539 10541 10538 10538 10537 10534 10531 10529 10530 10529 10532 10536 10537 10540 10543 10546 10550 10548 10557 10562 10563 10569 10571 10575 10578 10581 10582 10582 10579 10575 10578 10573 10569 10563 10556 10548 10540
10557 10553 10547 10543 10539 10535 10533 10531 10528 10529 10527 10525 10522 10520 10518 10516 10517 10518 10521 10524 10525 10528 10531 10534 10536 10536 10543 10547 10552 10556 10560 10563 10569 10570 10571 10572 10568 10568 10563 10560 10555 10548 10542 10539 10532
10541 10536 10532 10531 10526 10523 10521 10518 10516 10515 10516 10513 10510 10508 10507 10505 10508 10508 10509 10514 10514 10516 10520 10520 10523 10526 10531 10534 10539 10546 10550 10553 10559 10561 10560 10561 10558 10556 10554 10548 10541 10541 10538 10532 10524
10525 10520 10517 10515 10513 10511 10509 10507 10504 10502 10504 10502 10499 10497 10494 10495 10498 10498 10499 10502 10503 10505 10506 10508 10510 10514 10518 10521 10529 10535 10540 10545 10549 10550 10550 10549 10549 10545 10542 10539 10538 10534 10528 10522 10516
10509 10503 10502 10502 10500 10496 10495 10495 10493 10492 10490 10490 10490 10486 10485 10485 10487 10487 10487 10490 10491 10491 10494 10497 10497 10502 10505 10509 10519 10524 10530 10535 10539 10539 10541 10539 10537 10535 10535 10533 10531 10527 10521 10514 10508
10494 10488 10484 10486 10486 10484 10481 10481 10481 10479 10478 10480 10477 10477 10476 10475 10475 10475 10477 10477 10479 10480 10481 10485 10485 10490 10492 10497 10507 10516 10521 10527 10528 10531 10532 10529 10528 10529 10529 10527 10524 10520 10514 10508 10501
10472 10472 10471 10471 10470 10469 10470 10468 10469 10467 10466 10467 10466 10466 10466 10466 10465 10465 10466 10466 10467 10468 10470 10472 10474 10478 10481 10486 10497 10504 10512 10517 10519 10522 10522 10520 10522 10524 10523 10521 10519 10513 10507 10501 10494